Vorticity
nan nan nan nan nan nan nan nan nan nan nan nan nan nan nan nan nan nan nan nan nan nan nan nan nan nan nan nan nan nan nan nan nan nan nan nan nan nan nan nan nan nan nan nan nan
nan 8 7 7 7 6 7 6 6 7 7 7 7 8 7 15 20 8 13 12 6 2 5 9 11 9 6 8 7 5 8 9 9 10 12 6 7 4 10 3 3 15 16 13 nan
nan 7 8 8 7 7 7 7 7 6 6 7 8 8 8 15 14 9 13 17 13 5 5 5 8 6 10 13 10 9 7 8 8 15 11 5 4 13 9 6 11 6 4 5 nan
nan 6 7 8 8 8 7 7 7 7 7 7 7 8 19 19 4 5 7 12 9 6 4 7 7 9 9 6 9 11 11 11 10 10 9 8 4 14 5 14 15 8 5 5 nan
nan 6 7 8 8 8 8 7 7 7 7 7 7 12 19 12 8 2 6 7 6 7 6 7 4 6 9 7 9 9 11 10 10 9 11 8 7 7 10 17 12 10 6 3 nan
nan 7 7 8 9 9 8 7 7 7 7 7 8 16 15 4 11 3 2 9 10 7 9 8 8 7 5 9 8 11 13 7 6 10 9 6 3 5 16 15 10 6 4 3 nan
nan 7 7 8 9 9 8 8 8 8 8 8 12 16 11 7 -1 2 12 10 7 5 10 6 7 7 8 10 14 11 3 4 5 8 6 2 7 11 11 8 7 3 3 5 nan
nan 7 7 8 9 9 9 9 9 10 11 11 12 12 4 8 4 9 11 7 11 9 7 9 11 5 8 7 11 5 6 8 8 8 2 2 10 8 11 8 6 5 5 6 nan
nan 7 7 9 9 10 9 11 18 18 15 11 9 9 5 8 11 15 9 6 7 12 11 12 10 8 9 11 7 10 9 4 11 3 5 5 11 15 9 7 5 7 8 7 nan
nan 8 8 8 9 11 17 24 21 16 14 7 4 5 11 8 10 12 9 10 7 7 8 12 12 7 3 7 9 11 6 8 12 8 4 6 12 15 7 6 6 4 9 11 nan
nan 6 6 9 10 11 20 19 11 11 12 8 2 0 6 11 10 8 12 9 7 8 9 6 7 7 7 5 6 7 7 11 8 11 12 11 11 11 7 3 6 7 6 11 nan
nan 9 6 8 10 18 16 8 7 6 10 11 5 6 9 12 8 9 13 8 9 5 3 9 8 10 11 9 7 7 9 8 13 13 8 16 11 12 12 9 8 5 8 8 nan
nan 9 9 8 19 20 11 7 0 9 14 12 15 7 13 8 5 10 9 6 6 8 10 6 3 8 9 7 13 9 7 10 16 7 5 8 10 12 10 11 11 9 8 14 nan
nan 9 8 19 20 10 11 7 14 10 4 15 10 12 13 6 10 15 6 6 10 12 8 1 11 7 6 10 9 5 11 13 13 7 9 2 10 8 18 8 8 8 10 8 nan
nan 9 14 19 13 8 4 6 15 10 7 15 10 12 14 9 8 11 7 9 13 8 6 6 6 9 13 11 9 8 7 14 10 7 10 5 12 13 11 6 10 9 6 9 nan
nan 11 16 15 11 4 2 14 11 9 9 10 14 9 7 6 7 11 10 8 12 8 5 11 7 10 8 11 8 12 9 9 11 8 6 13 7 11 17 13 3 9 12 9 nan
nan 14 13 8 6 8 14 13 10 5 8 12 9 9 8 9 6 11 10 8 8 6 6 14 12 12 12 9 6 10 9 7 5 12 9 8 10 7 6 20 23 12 7 13 nan
nan 23 17 7 3 8 14 11 8 6 6 9 11 13 10 5 9 11 7 4 6 9 11 8 8 13 13 12 10 5 7 8 10 7 8 9 6 12 9 15 21 14 7 7 nan
nan 22 11 18 10 5 12 9 9 5 4 11 13 9 8 10 12 11 11 10 8 5 7 3 6 12 11 10 13 8 8 9 6 8 11 7 6 9 6 10 14 10 6 8 nan
nan 11 12 17 10 5 9 7 8 3 7 12 11 7 9 10 12 10 9 8 10 7 7 6 13 6 8 10 10 16 7 7 11 13 7 9 12 8 7 7 6 11 6 -0 nan
nan 12 15 10 5 9 12 7 7 5 7 9 8 10 11 12 9 6 4 13 14 7 9 7 8 5 9 11 8 6 10 13 14 10 10 9 10 12 12 8 8 1 5 9 nan
nan 9 11 9 9 9 11 9 7 10 8 8 10 8 6 8 11 13 10 11 12 11 6 4 4 15 2 4 13 13 10 10 9 7 9 12 8 14 14 7 7 6 4 6 nan
nan 9 8 13 9 8 7 9 9 11 8 11 10 10 8 8 16 12 10 12 9 10 12 9 4 7 8 14 12 11 10 9 9 13 10 7 11 14 9 10 9 9 5 6 nan
nan 8 9 10 11 8 10 10 6 10 13 13 10 11 9 11 9 12 10 7 20 10 7 11 16 14 10 9 7 6 8 8 7 8 13 6 13 14 9 10 11 10 8 7 nan
nan 11 11 7 8 11 10 6 8 12 15 7 12 10 12 10 8 12 10 8 9 14 12 8 7 8 11 13 10 10 9 7 5 9 11 12 8 15 17 10 7 9 9 10 nan
nan 8 12 10 8 15 12 12 11 9 6 8 10 8 18 14 9 11 9 9 6 11 10 12 13 8 9 10 9 9 9 10 9 9 11 13 7 13 12 11 12 12 9 7 nan
nan nan nan nan nan nan nan nan nan nan nan nan nan nan nan nan nan nan nan nan nan nan nan nan nan nan nan nan nan nan nan nan nan nan nan nan nan nan nan nan nan nan nan nan nan
CAPE
0 1 0 2 3 2 3 2 2 2 2 1 1 0 0 0 0 0 0 0 0 53 10 0 0 0 0 0 0 139 9 28 95 373 754 711 657 295 617 242 185 339 82 2 199
1 0 0 0 1 3 3 2 2 2 2 1 0 0 0 0 0 0 0 136 601 5 0 0 0 0 0 0 0 1 2 19 12 81 778 768 814 805 495 304 241 482 509 659 644
1 1 1 0 0 1 2 3 2 2 1 1 0 0 0 0 0 0 0 509 357 0 0 0 0 0 0 0 0 0 17 6 144 341 836 905 919 785 419 337 214 526 714 710 621
0 0 0 1 0 4 4 3 3 2 1 1 0 0 0 0 0 0 2 188 489 0 0 0 0 0 0 0 0 46 56 199 333 851 874 936 719 871 423 459 305 498 586 658 689
1 1 1 1 0 3 3 3 3 1 1 0 0 0 0 0 0 0 23 5 0 0 0 0 0 0 0 1 0 32 163 403 232 298 446 590 945 1005 741 206 431 624 537 517 498
2 1 1 1 0 2 2 3 1 1 0 0 0 0 0 0 0 0 0 0 0 0 0 0 0 0 0 0 1 3 246 192 215 1022 694 1203 1090 840 427 339 452 500 501 460 431
2 1 1 1 1 1 0 3 1 0 0 0 0 0 0 0 0 0 0 0 0 0 0 0 0 0 0 0 0 290 316 374 529 1045 1190 1082 1044 788 324 236 431 366 271 293 413
1 3 1 1 1 0 2 1 1 0 0 0 0 0 0 0 0 0 0 0 0 0 0 0 0 0 0 0 0 261 189 373 455 685 988 420 911 952 600 232 221 336 240 295 340
1 1 1 1 1 0 2 0 0 0 0 0 0 0 0 0 0 0 0 0 0 0 0 0 0 0 0 0 0 0 269 75 412 293 272 167 554 878 699 438 224 82 123 280 268
1 1 4 2 1 0 1 0 0 0 0 0 0 0 0 0 0 0 0 0 0 0 0 0 0 0 0 0 0 0 3 81 317 351 102 252 468 884 810 619 408 182 32 91 158
2 7 2 1 1 0 0 0 0 0 0 0 0 0 0 0 0 0 0 0 0 0 0 0 0 0 0 0 0 0 0 1 98 155 179 313 394 882 853 649 328 239 85 0 91
2 7 6 1 0 0 0 0 0 0 0 0 0 0 0 0 0 0 0 0 0 0 0 0 0 0 0 0 0 0 0 0 0 94 169 376 420 636 752 493 345 262 151 10 66
1 3 5 3 1 0 0 0 0 0 0 0 0 0 0 0 0 0 0 0 0 0 0 0 0 0 0 0 0 0 0 0 0 140 46 432 514 451 340 258 138 129 85 39 74
1 1 5 2 0 0 0 0 0 0 0 0 0 0 0 0 0 0 0 0 0 0 0 0 0 0 0 0 0 4 0 0 0 79 48 225 376 254 373 352 201 131 123 116 61
4 0 1 2 0 0 0 0 0 0 0 0 0 0 0 0 0 0 0 0 0 0 0 0 0 0 0 0 0 14 0 0 0 0 0 36 0 43 193 355 235 138 47 84 93
4 4 1 0 0 0 0 0 0 0 0 0 0 0 0 0 0 0 0 0 0 0 0 0 0 0 0 0 0 0 0 0 0 0 0 0 0 0 429 417 259 54 52 31 57
0 0 2 0 0 0 0 0 0 0 0 0 0 0 0 0 0 0 0 0 0 0 0 0 0 0 0 0 0 0 0 0 0 0 0 0 16 0 50 47 193 92 33 20 43
0 0 0 0 0 0 0 0 0 0 0 0 0 0 0 0 0 0 0 0 0 0 0 0 0 0 0 0 0 0 0 0 0 0 0 10 35 78 24 35 122 106 62 52 41
0 0 0 0 0 0 0 0 0 0 0 0 0 0 0 0 0 0 0 0 0 0 0 0 0 0 0 0 0 0 0 0 0 0 0 2 8 22 16 56 53 86 119 95 117
0 0 0 0 0 0 0 0 0 0 0 0 0 0 0 0 0 0 0 0 0 0 0 0 0 0 0 0 0 0 0 0 0 0 0 18 66 5 38 63 58 101 111 77 47
0 0 0 0 0 0 0 0 0 0 0 0 0 0 0 0 0 0 0 0 0 0 0 0 0 0 0 5 0 0 0 0 0 0 0 1 1 0 5 77 91 70 69 114 86
0 0 0 0 0 0 0 0 0 0 0 0 0 0 0 0 0 0 0 0 0 0 0 0 0 0 0 0 0 0 0 0 0 0 0 0 1 3 13 139 160 223 267 528 362
0 0 0 0 0 0 0 0 0 0 0 0 0 0 0 0 0 0 0 0 0 0 0 0 0 0 0 0 0 0 0 0 0 0 0 0 0 1 188 268 250 244 441 229 241
0 70 0 0 0 0 0 0 0 0 0 0 0 0 0 0 0 0 0 0 0 0 187 6 0 0 0 0 0 0 0 0 0 0 0 0 0 0 0 0 0 206 259 0 0
0 60 3 1 0 0 0 0 0 0 0 0 0 0 0 0 0 0 0 0 0 1 0 0 6 0 0 0 0 0 0 0 0 0 0 0 4 4 36 0 0 0 16 6 14
41 15 12 0 0 50 3 4 0 0 16 46 10 21 0 0 0 1 0 0 1 0 0 0 0 0 0 0 0 0 0 0 0 0 0 2 25 0 0 46 52 0 26 244 347
0 0 0 1 47 147 111 15 20 0 5 51 16 0 1 8 0 0 0 0 4 0 0 0 0 0 0 0 0 0 0 0 0 0 24 145 93 0 1 79 93 83 169 292 629